| time (UTC) | temp F | wind direction | speed knots | gust knots | rain 1hr in | rain 24hr in | rain mn in | humidity % | barometer mb |
| 20260506124050 | 26 | 237 | 1.7 | 2.6 | 0.00 | 0.00 | 0.00 | 58 | 1021.2 |
| 20260506123056 | 25 | 237 | 0.0 | 1.7 | 0.00 | 0.00 | 0.00 | 60 | 1021.0 |
| 20260506122554 | 24 | 237 | 0.0 | 1.7 | 0.00 | 0.00 | 0.00 | 60 | 1020.9 |
| 20260506122052 | 24 | 238 | 0.0 | 0.0 | 0.00 | 0.00 | 0.00 | 60 | 1020.9 |
| 20260506121556 | 24 | 238 | 0.0 | 0.9 | 0.00 | 0.00 | 0.00 | 59 | 1020.9 |
| 20260506121052 | 24 | 238 | 0.0 | 1.7 | 0.00 | 0.00 | 0.00 | 58 | 1020.9 |
| 20260506120550 | 25 | 238 | 0.0 | 3.5 | 0.00 | 0.00 | 0.00 | 57 | 1020.8 |
| 20260506120100 | 26 | 238 | 0.0 | 3.5 | 0.00 | 0.00 | 0.00 | 55 | 1020.8 |
| 20260506115549 | 27 | 242 | 0.9 | 6.1 | 0.00 | 0.00 | 0.00 | 53 | 1020.6 |
| 20260506115048 | 27 | 241 | 1.7 | 6.1 | 0.00 | 0.00 | 0.00 | 53 | 1020.6 |
| 20260506114548 | 27 | 320 | 0.9 | 4.3 | 0.00 | 0.00 | 0.00 | 53 | 1020.5 |
| 20260506114147 | 27 | 325 | 1.7 | 4.3 | 0.00 | 0.00 | 0.00 | 54 | 1020.4 |
| 20260506113043 | 26 | 190 | 0.0 | 1.7 | 0.00 | 0.00 | 0.00 | 56 | 1020.4 |
| 20260506112545 | 26 | 190 | 0.0 | 2.6 | 0.00 | 0.00 | 0.00 | 56 | 1020.4 |
| 20260506112041 | 25 | 190 | 0.0 | 1.7 | 0.00 | 0.00 | 0.00 | 57 | 1020.4 |
| 20260506111546 | 25 | 190 | 0.0 | 1.7 | 0.00 | 0.00 | 0.00 | 56 | 1020.5 |
| 20260506111040 | 25 | 190 | 0.9 | 4.3 | 0.00 | 0.00 | 0.00 | 56 | 1020.3 |
| 20260506110541 | 25 | 190 | 0.9 | 5.2 | 0.00 | 0.00 | 0.00 | 56 | 1020.3 |
| 20260506110043 | 26 | 190 | 2.6 | 3.5 | 0.00 | 0.00 | 0.00 | 56 | 1020.3 |
| 20260506105539 | 26 | 190 | 0.9 | 3.5 | 0.00 | 0.00 | 0.00 | 56 | 1020.3 |
| 20260506105042 | 25 | 190 | 1.7 | 3.5 | 0.00 | 0.00 | 0.00 | 57 | 1020.2 |
| 20260506104548 | 25 | 190 | 0.9 | 5.2 | 0.00 | 0.00 | 0.00 | 55 | 1020.2 |
| 20260506104036 | 26 | 190 | 2.6 | 5.2 | 0.00 | 0.00 | 0.00 | 55 | 1020.1 |
| 20260506103044 | 27 | 247 | 0.0 | 2.6 | 0.00 | 0.00 | 0.00 | 55 | 1020.2 |
| 20260506102536 | 26 | 271 | 0.0 | 1.7 | 0.00 | 0.00 | 0.00 | 55 | 1020.2 |
| 20260506102035 | 27 | 271 | 0.0 | 1.7 | 0.00 | 0.00 | 0.00 | 55 | 1020.3 |
| 20260506101535 | 27 | 271 | 0.9 | 2.6 | 0.00 | 0.00 | 0.00 | 54 | 1020.3 |
| 20260506101034 | 26 | 280 | 0.0 | 2.6 | 0.00 | 0.00 | 0.00 | 54 | 1020.3 |
| 20260506100534 | 26 | 280 | 0.0 | 1.7 | 0.00 | 0.00 | 0.00 | 55 | 1020.3 |
| 20260506100034 | 26 | 280 | 0.0 | 1.7 | 0.00 | 0.00 | 0.00 | 55 | 1020.3 |
| 20260506095534 | 26 | 280 | 0.0 | 1.7 | 0.00 | 0.00 | 0.00 | 54 | 1020.4 |
| 20260506095035 | 26 | 280 | 0.0 | 2.6 | 0.00 | 0.00 | 0.00 | 54 | 1020.3 |
| 20260506094533 | 26 | 280 | 0.0 | 2.6 | 0.00 | 0.00 | 0.00 | 55 | 1020.2 |
| 20260506094032 | 26 | 278 | 0.0 | 1.7 | 0.00 | 0.00 | 0.00 | 55 | 1020.3 |
| 20260506093036 | 26 | 279 | 0.0 | 1.7 | 0.00 | 0.00 | 0.00 | 55 | 1020.1 |
| 20260506092536 | 26 | 279 | 0.0 | 2.6 | 0.00 | 0.00 | 0.00 | 55 | 1020.1 |
| 20260506092036 | 26 | 279 | 0.0 | 2.6 | 0.00 | 0.00 | 0.00 | 55 | 1020.1 |
| 20260506091537 | 26 | 279 | 0.0 | 2.6 | 0.00 | 0.00 | 0.00 | 55 | 1020.3 |
| 20260506091034 | 26 | 279 | 0.0 | 2.6 | 0.00 | 0.00 | 0.00 | 55 | 1020.2 |
| 20260506090533 | 26 | 279 | 0.9 | 2.6 | 0.00 | 0.00 | 0.00 | 55 | 1020.1 |
| 20260506090033 | 26 | 279 | 0.0 | 2.6 | 0.00 | 0.00 | 0.00 | 55 | 1020.1 |
| 20260506090003 | 26 | 279 | 0.0 | 2.6 | 0.00 | 0.00 | 0.00 | 55 | 1020.2 |
| 20260506085532 | 26 | 279 | 0.0 | 2.6 | 0.00 | 0.00 | 0.00 | 55 | 1020.1 |
| 20260506085031 | 27 | 279 | 0.0 | 3.5 | 0.00 | 0.00 | 0.00 | 55 | 1020.1 |
| 20260506084607 | 27 | 279 | 0.9 | 3.5 | 0.00 | 0.00 | 0.00 | 55 | 1020.0 |
| 20260506084030 | 27 | 278 | 0.9 | 2.6 | 0.00 | 0.00 | 0.00 | 54 | 1020.0 |
| 20260506083026 | 27 | 278 | 0.9 | 2.6 | 0.00 | 0.00 | 0.00 | 54 | 1020.1 |
| 20260506082524 | 28 | 278 | 0.0 | 1.7 | 0.00 | 0.00 | 0.00 | 53 | 1020.1 |
| 20260506082024 | 28 | 278 | 0.0 | 1.7 | 0.00 | 0.00 | 0.00 | 54 | 1020.1 |
| 20260506081534 | 28 | 278 | 0.0 | 1.7 | 0.00 | 0.00 | 0.00 | 53 | 1020.1 |
| 20260506081022 | 28 | 278 | 0.0 | 1.7 | 0.00 | 0.00 | 0.00 | 53 | 1020.1 |
| 20260506080522 | 28 | 278 | 0.0 | 1.7 | 0.00 | 0.00 | 0.00 | 53 | 1020.1 |
| 20260506073019 | 29 | 279 | 0.0 | 2.6 | 0.00 | 0.00 | 0.00 | 54 | 1020.1 |
| 20260506072517 | 29 | 279 | 0.0 | 0.9 | 0.00 | 0.00 | 0.00 | 54 | 1020.0 |
| 20260506072017 | 29 | 279 | 0.0 | 1.7 | 0.00 | 0.00 | 0.00 | 53 | 1020.0 |
| 20260506071517 | 30 | 279 | 0.0 | 1.7 | 0.00 | 0.00 | 0.00 | 53 | 1020.1 |
| 20260506071015 | 30 | 279 | 0.0 | 2.6 | 0.00 | 0.00 | 0.00 | 53 | 1020.1 |
| 20260506070515 | 30 | 279 | 0.0 | 2.6 | 0.00 | 0.00 | 0.00 | 53 | 1020.1 |
| 20260506062510 | 30 | 272 | 0.0 | 1.7 | 0.00 | 0.00 | 0.00 | 56 | 1019.8 |
| 20260506062010 | 30 | 272 | 0.0 | 1.7 | 0.00 | 0.00 | 0.00 | 56 | 1019.8 |
| 20260506061510 | 30 | 272 | 0.0 | 1.7 | 0.00 | 0.00 | 0.00 | 56 | 1020.0 |
| 20260506061009 | 30 | 272 | 0.0 | 1.7 | 0.00 | 0.00 | 0.00 | 56 | 1019.8 |
| 20260506060510 | 30 | 272 | 0.0 | 2.6 | 0.00 | 0.00 | 0.00 | 56 | 1019.9 |
| 20260506051006 | 30 | 280 | 0.9 | 3.5 | 0.00 | 0.00 | 0.00 | 56 | 1019.6 |
| 20260506050505 | 30 | 279 | 1.7 | 3.5 | 0.00 | 0.00 | 0.00 | 55 | 1019.7 |
| 20260506045005 | 31 | 277 | 1.7 | 3.5 | 0.00 | 0.00 | 0.00 | 54 | 1019.5 |
| 20260506044504 | 31 | 271 | 1.7 | 3.5 | 0.00 | 0.00 | 0.00 | 55 | 1019.6 |
| 20260506044006 | 31 | 276 | 0.9 | 3.5 | 0.00 | 0.00 | 0.00 | 55 | 1019.5 |
| 20260506043003 | 31 | 298 | 0.9 | 1.7 | 0.00 | 0.00 | 0.00 | 55 | 1019.5 |
| 20260506042504 | 31 | 307 | 0.9 | 1.7 | 0.00 | 0.00 | 0.00 | 55 | 1019.6 |
| 20260506042003 | 31 | 307 | 0.9 | 1.7 | 0.00 | 0.00 | 0.00 | 55 | 1019.5 |
| 20260506041503 | 31 | 307 | 0.9 | 2.6 | 0.00 | 0.00 | 0.00 | 55 | 1019.7 |
| 20260506041002 | 31 | 307 | 0.9 | 2.6 | 0.00 | 0.00 | 0.00 | 55 | 1019.4 |
| 20260506040502 | 31 | 307 | 0.9 | 1.7 | 0.00 | 0.00 | 0.00 | 55 | 1019.6 |
| 20260506040001 | 31 | 307 | 0.9 | 2.6 | 0.00 | 0.00 | 0.00 | 54 | 1019.6 |
| 20260506035501 | 31 | 307 | 0.9 | 2.6 | 0.00 | 0.00 | 0.00 | 53 | 1019.6 |
| 20260506035100 | 32 | 307 | 0.9 | 1.7 | 0.00 | 0.00 | 0.00 | 53 | 1019.6 |
| 20260506034559 | 32 | 307 | 0.9 | 2.6 | 0.00 | 0.00 | 0.00 | 53 | 1019.6 |
| 20260506034059 | 32 | 307 | 1.7 | 2.6 | 0.00 | 0.00 | 0.00 | 52 | 1019.5 |
| 20260506033101 | 33 | 307 | 1.7 | 2.6 | 0.00 | 0.00 | 0.00 | 51 | 1019.6 |
| 20260506032556 | 33 | 307 | 0.9 | 2.6 | 0.00 | 0.00 | 0.00 | 51 | 1019.6 |
| 20260506032055 | 33 | 307 | 0.9 | 2.6 | 0.00 | 0.00 | 0.00 | 50 | 1019.4 |
| 20260506031556 | 33 | 307 | 0.9 | 2.6 | 0.00 | 0.00 | 0.00 | 49 | 1019.4 |
| 20260506031054 | 34 | 307 | 1.7 | 2.6 | 0.00 | 0.00 | 0.00 | 48 | 1019.3 |
| 20260506030552 | 35 | 308 | 0.0 | 2.6 | 0.00 | 0.00 | 0.00 | 47 | 1019.3 |
| 20260506030051 | 35 | 309 | 0.0 | 0.0 | 0.00 | 0.00 | 0.00 | 47 | 1019.3 |
| 20260506025551 | 36 | 309 | 0.0 | 0.0 | 0.00 | 0.00 | 0.00 | 47 | 1019.1 |
| 20260506025053 | 36 | 309 | 0.0 | 0.9 | 0.00 | 0.00 | 0.00 | 46 | 1019.2 |
| 20260506024549 | 37 | 309 | 0.0 | 2.6 | 0.00 | 0.00 | 0.00 | 46 | 1019.2 |
| 20260506024151 | 37 | 309 | 0.0 | 2.6 | 0.00 | 0.00 | 0.00 | 45 | 1019.1 |
| 20260506023104 | 38 | 309 | 0.0 | 0.0 | 0.00 | 0.00 | 0.00 | 44 | 1019.1 |
| 20260506022550 | 38 | 309 | 0.0 | 3.5 | 0.00 | 0.00 | 0.00 | 44 | 1019.0 |
| 20260506022050 | 38 | 309 | 0.0 | 3.5 | 0.00 | 0.00 | 0.00 | 43 | 1018.9 |
| 20260506021609 | 39 | 340 | 0.0 | 2.6 | 0.00 | 0.00 | 0.00 | 43 | 1019.0 |
| 20260506021051 | 39 | 340 | 0.0 | 1.7 | 0.00 | 0.00 | 0.00 | 42 | 1018.9 |
| 20260506020549 | 40 | 340 | 0.0 | 1.7 | 0.00 | 0.00 | 0.00 | 42 | 1019.0 |
| 20260506020049 | 40 | 340 | 0.0 | 1.7 | 0.00 | 0.00 | 0.00 | 41 | 1018.8 |
| 20260506015549 | 41 | 351 | 0.0 | 0.9 | 0.00 | 0.00 | 0.00 | 40 | 1018.8 |
| 20260506015051 | 41 | 351 | 0.0 | 3.5 | 0.00 | 0.00 | 0.00 | 40 | 1018.7 |
| 20260506014547 | 42 | 355 | 0.0 | 3.5 | 0.00 | 0.00 | 0.00 | 39 | 1018.7 |
| 20260506014050 | 43 | 349 | 1.7 | 4.3 | 0.00 | 0.00 | 0.00 | 39 | 1018.7 |
| 20260506013057 | 44 | 337 | 1.7 | 7.0 | 0.00 | 0.00 | 0.00 | 38 | 1018.6 |
| 20260506012546 | 44 | 319 | 0.9 | 7.0 | 0.00 | 0.00 | 0.00 | 38 | 1018.6 |
| 20260506012047 | 44 | 355 | 2.6 | 7.0 | 0.00 | 0.00 | 0.00 | 38 | 1018.6 |
| 20260506011559 | 44 | 355 | 3.5 | 7.8 | 0.00 | 0.00 | 0.00 | 38 | 1018.6 |
| 20260506011044 | 44 | 9 | 3.5 | 9.6 | 0.00 | 0.00 | 0.00 | 37 | 1018.5 |
| 20260506010545 | 45 | 5 | 3.5 | 9.6 | 0.00 | 0.00 | 0.00 | 36 | 1018.4 |
| 20260506010048 | 45 | 348 | 2.6 | 7.0 | 0.00 | 0.00 | 0.00 | 36 | 1018.3 |
| 20260506005548 | 45 | 26 | 2.6 | 7.0 | 0.00 | 0.00 | 0.00 | 36 | 1018.3 |
| 20260506005044 | 45 | 24 | 1.7 | 5.2 | 0.00 | 0.00 | 0.00 | 37 | 1018.3 |
| 20260506004544 | 45 | 290 | 1.7 | 8.7 | 0.00 | 0.00 | 0.00 | 37 | 1018.4 |
| 20260506004043 | 45 | 304 | 4.3 | 8.7 | 0.00 | 0.00 | 0.00 | 37 | 1018.3 |
| 20260506003043 | 45 | 360 | 3.5 | 7.8 | 0.00 | 0.00 | 0.00 | 36 | 1018.2 |
| 20260506002542 | 45 | 360 | 4.3 | 9.6 | 0.00 | 0.00 | 0.00 | 36 | 1018.2 |
| 20260506002042 | 45 | 12 | 3.5 | 9.6 | 0.00 | 0.00 | 0.00 | 36 | 1018.1 |
| 20260506001547 | 45 | 312 | 2.6 | 8.7 | 0.00 | 0.00 | 0.00 | 36 | 1018.2 |
| 20260506001042 | 45 | 307 | 2.6 | 8.7 | 0.00 | 0.00 | 0.00 | 35 | 1018.3 |
| 20260506000544 | 45 | 13 | 2.6 | 9.6 | 0.00 | 0.00 | 0.00 | 35 | 1018.2 |
| 20260506000047 | 45 | 300 | 4.3 | 10.4 | 0.00 | 0.00 | 0.00 | 35 | 1018.1 |
| 20260505235544 | 45 | 317 | 2.6 | 10.4 | 0.00 | 0.00 | 0.00 | 35 | 1018.1 |
| 20260505235042 | 46 | 302 | 2.6 | 7.0 | 0.00 | 0.00 | 0.00 | 36 | 1018.1 |
| 20260505234541 | 46 | 298 | 0.9 | 7.8 | 0.00 | 0.00 | 0.00 | 35 | 1018.1 |
| 20260505234041 | 46 | 355 | 3.5 | 9.6 | 0.00 | 0.00 | 0.00 | 35 | 1018.0 |
| 20260505233145 | 46 | 296 | 3.5 | 8.7 | 0.00 | 0.00 | 0.00 | 35 | 1017.9 |
| 20260505232545 | 46 | 302 | 1.7 | 8.7 | 0.00 | 0.00 | 0.00 | 35 | 1017.8 |
| 20260505232048 | 46 | 360 | 1.7 | 7.8 | 0.00 | 0.00 | 0.00 | 36 | 1018.0 |
| 20260505231603 | 46 | 292 | 3.5 | 7.8 | 0.00 | 0.00 | 0.00 | 35 | 1017.7 |
| 20260505231044 | 46 | 360 | 2.6 | 7.8 | 0.00 | 0.00 | 0.00 | 36 | 1018.0 |
| 20260505230544 | 46 | 30 | 2.6 | 13.0 | 0.00 | 0.00 | 0.00 | 36 | 1017.8 |
| 20260505230045 | 46 | 296 | 2.6 | 16.5 | 0.00 | 0.00 | 0.00 | 35 | 1017.9 |
| 20260505225545 | 46 | 324 | 1.7 | 8.7 | 0.00 | 0.00 | 0.00 | 36 | 1017.8 |
| 20260505225045 | 46 | 34 | 4.3 | 8.7 | 0.00 | 0.00 | 0.00 | 35 | 1017.8 |
| 20260505224545 | 46 | 26 | 2.6 | 8.7 | 0.00 | 0.00 | 0.00 | 35 | 1017.9 |
| 20260505224044 | 46 | 334 | 5.2 | 11.3 | 0.00 | 0.00 | 0.00 | 35 | 1017.8 |
| 20260505223037 | 46 | 317 | 3.5 | 9.6 | 0.00 | 0.00 | 0.00 | 36 | 1017.8 |
| 20260505222537 | 46 | 303 | 4.3 | 9.6 | 0.00 | 0.00 | 0.00 | 36 | 1017.9 |
| 20260505222037 | 46 | 323 | 3.5 | 11.3 | 0.00 | 0.00 | 0.00 | 36 | 1017.8 |
| 20260505221537 | 46 | 282 | 4.3 | 11.3 | 0.00 | 0.00 | 0.00 | 35 | 1017.9 |
| 20260505221036 | 46 | 292 | 2.6 | 12.2 | 0.00 | 0.00 | 0.00 | 35 | 1017.9 |
| 20260505220536 | 46 | 12 | 2.6 | 12.2 | 0.00 | 0.00 | 0.00 | 37 | 1017.8 |
| 20260505220036 | 46 | 300 | 3.5 | 10.4 | 0.00 | 0.00 | 0.00 | 36 | 1017.8 |
| 20260505215536 | 46 | 309 | 2.6 | 10.4 | 0.00 | 0.00 | 0.00 | 35 | 1017.7 |
| 20260505215036 | 47 | 308 | 3.5 | 7.8 | 0.00 | 0.00 | 0.00 | 35 | 1017.9 |
| 20260505214549 | 47 | 306 | 2.6 | 9.6 | 0.00 | 0.00 | 0.00 | 35 | 1017.7 |
| 20260505214036 | 46 | 308 | 4.3 | 12.2 | 0.00 | 0.00 | 0.00 | 36 | 1017.8 |
| 20260505213040 | 47 | 323 | 3.5 | 8.7 | 0.00 | 0.00 | 0.00 | 36 | 1017.9 |
| 20260505212537 | 46 | 321 | 3.5 | 11.3 | 0.00 | 0.00 | 0.00 | 36 | 1017.9 |
| 20260505212037 | 46 | 324 | 4.3 | 12.2 | 0.00 | 0.00 | 0.00 | 35 | 1018.0 |
| 20260505211537 | 46 | 36 | 6.1 | 12.2 | 0.00 | 0.00 | 0.00 | 35 | 1017.9 |
| 20260505211037 | 46 | 312 | 4.3 | 11.3 | 0.00 | 0.00 | 0.00 | 35 | 1017.9 |
| 20260505210536 | 47 | 316 | 2.6 | 8.7 | 0.00 | 0.00 | 0.00 | 35 | 1017.9 |
| 20260505210036 | 46 | 346 | 2.6 | 9.6 | 0.00 | 0.00 | 0.00 | 36 | 1017.9 |
| 20260505205638 | 47 | 301 | 4.3 | 9.6 | 0.00 | 0.00 | 0.00 | 34 | 1018.1 |
| 20260505205035 | 47 | 5 | 3.5 | 13.0 | 0.00 | 0.00 | 0.00 | 36 | 1018.1 |
| 20260505204535 | 46 | 315 | 4.3 | 13.0 | 0.00 | 0.00 | 0.00 | 36 | 1018.2 |
| 20260505204035 | 45 | 11 | 3.5 | 9.6 | 0.00 | 0.00 | 0.00 | 37 | 1018.0 |
| 20260505203052 | 46 | 297 | 7.8 | 12.2 | 0.00 | 0.00 | 0.00 | 35 | 1018.1 |
| 20260505202534 | 46 | 329 | 4.3 | 11.3 | 0.00 | 0.00 | 0.00 | 36 | 1018.1 |
| 20260505202035 | 46 | 308 | 4.3 | 9.6 | 0.00 | 0.00 | 0.00 | 35 | 1018.1 |
| 20260505201541 | 47 | 319 | 4.3 | 12.2 | 0.00 | 0.00 | 0.00 | 34 | 1018.2 |
| 20260505201033 | 47 | 5 | 4.3 | 12.2 | 0.00 | 0.00 | 0.00 | 36 | 1018.1 |
| 20260505200534 | 47 | 306 | 6.1 | 12.2 | 0.00 | 0.00 | 0.00 | 35 | 1018.2 |
| 20260505200034 | 46 | 360 | 3.5 | 12.2 | 0.00 | 0.00 | 0.00 | 38 | 1018.2 |
| 20260505195535 | 45 | 298 | 4.3 | 15.6 | 0.00 | 0.00 | 0.00 | 36 | 1018.2 |
| 20260505195032 | 46 | 303 | 4.3 | 15.6 | 0.00 | 0.00 | 0.00 | 35 | 1018.2 |
| 20260505194532 | 45 | 279 | 4.3 | 12.2 | 0.00 | 0.00 | 0.00 | 36 | 1018.2 |
| 20260505194033 | 46 | 321 | 4.3 | 12.2 | 0.00 | 0.00 | 0.00 | 36 | 1018.3 |
| 20260505193035 | 47 | 321 | 6.1 | 11.3 | 0.00 | 0.00 | 0.00 | 35 | 1018.0 |
| 20260505192535 | 47 | 13 | 4.3 | 10.4 | 0.00 | 0.00 | 0.00 | 37 | 1018.1 |
| 20260505192040 | 47 | 13 | 2.6 | 9.6 | 0.00 | 0.00 | 0.00 | 35 | 1018.1 |
| 20260505191535 | 45 | 82 | 2.6 | 9.6 | 0.00 | 0.00 | 0.00 | 36 | 1017.9 |
| 20260505191035 | 46 | 330 | 4.3 | 13.0 | 0.00 | 0.00 | 0.00 | 34 | 1017.9 |
| 20260505190534 | 47 | 336 | 5.2 | 13.0 | 0.00 | 0.00 | 0.00 | 34 | 1018.0 |
| 20260505190035 | 47 | 291 | 4.3 | 11.3 | 0.00 | 0.00 | 0.00 | 35 | 1018.0 |
| 20260505185532 | 47 | 294 | 4.3 | 9.6 | 0.00 | 0.00 | 0.00 | 35 | 1017.9 |
| 20260505185032 | 46 | 355 | 4.3 | 12.2 | 0.00 | 0.00 | 0.00 | 34 | 1018.0 |
| 20260505184535 | 45 | 20 | 6.1 | 12.2 | 0.00 | 0.00 | 0.00 | 36 | 1017.9 |
| 20260505184031 | 45 | 341 | 5.2 | 16.5 | 0.00 | 0.00 | 0.00 | 35 | 1018.1 |
| 20260505183026 | 45 | 321 | 4.3 | 11.3 | 0.00 | 0.00 | 0.00 | 35 | 1017.9 |
| 20260505182524 | 45 | 5 | 5.2 | 11.3 | 0.00 | 0.00 | 0.00 | 36 | 1017.7 |
| 20260505182024 | 44 | 320 | 5.2 | 12.2 | 0.00 | 0.00 | 0.00 | 37 | 1018.0 |
| 20260505181525 | 44 | 319 | 3.5 | 12.2 | 0.00 | 0.00 | 0.00 | 37 | 1017.9 |
| 20260505181024 | 44 | 350 | 5.2 | 10.4 | 0.00 | 0.00 | 0.00 | 36 | 1017.7 |
| 20260505180523 | 45 | 298 | 5.2 | 12.2 | 0.00 | 0.00 | 0.00 | 35 | 1017.9 |
| 20260505180022 | 44 | 334 | 6.1 | 13.0 | 0.00 | 0.00 | 0.00 | 37 | 1017.9 |
| 20260505175522 | 44 | 346 | 7.0 | 13.0 | 0.00 | 0.00 | 0.00 | 37 | 1017.9 |
| 20260505175022 | 43 | 348 | 3.5 | 9.6 | 0.00 | 0.00 | 0.00 | 38 | 1017.9 |
| 20260505174528 | 43 | 23 | 3.5 | 13.9 | 0.00 | 0.00 | 0.00 | 39 | 1018.1 |
| 20260505174021 | 42 | 311 | 5.2 | 13.9 | 0.00 | 0.00 | 0.00 | 37 | 1018.2 |
| 20260505173020 | 42 | 330 | 4.3 | 12.2 | 0.00 | 0.00 | 0.00 | 42 | 1018.2 |
| 20260505172519 | 42 | 307 | 6.1 | 11.3 | 0.00 | 0.00 | 0.00 | 41 | 1018.2 |
| 20260505172020 | 41 | 13 | 3.5 | 11.3 | 0.00 | 0.00 | 0.00 | 43 | 1018.2 |
| 20260505171519 | 41 | 349 | 3.5 | 12.2 | 0.00 | 0.00 | 0.00 | 43 | 1018.2 |
| 20260505171020 | 41 | 306 | 6.1 | 12.2 | 0.00 | 0.00 | 0.00 | 43 | 1018.3 |
| 20260505170519 | 42 | 319 | 4.3 | 11.3 | 0.00 | 0.00 | 0.00 | 42 | 1018.3 |
| 20260505170020 | 43 | 339 | 3.5 | 9.6 | 0.00 | 0.00 | 0.00 | 42 | 1018.2 |
| 20260505165518 | 44 | 22 | 6.1 | 9.6 | 0.00 | 0.00 | 0.00 | 41 | 1018.2 |
| 20260505165017 | 43 | 12 | 3.5 | 9.6 | 0.00 | 0.00 | 0.00 | 44 | 1018.2 |
| 20260505164515 | 42 | 360 | 4.3 | 8.7 | 0.00 | 0.00 | 0.00 | 48 | 1018.2 |
| 20260505164016 | 40 | 25 | 2.6 | 13.0 | 0.00 | 0.00 | 0.00 | 49 | 1018.2 |
| 20260505163026 | 41 | 360 | 5.2 | 9.6 | 0.00 | 0.00 | 0.00 | 48 | 1018.1 |
| 20260505162520 | 41 | 16 | 3.5 | 7.8 | 0.00 | 0.00 | 0.00 | 47 | 1018.1 |
| 20260505162019 | 40 | 12 | 2.6 | 12.2 | 0.00 | 0.00 | 0.00 | 50 | 1018.1 |
| 20260505161518 | 40 | 5 | 3.5 | 12.2 | 0.00 | 0.00 | 0.00 | 49 | 1018.1 |
| 20260505161018 | 40 | 355 | 3.5 | 7.8 | 0.00 | 0.00 | 0.00 | 48 | 1018.1 |
| 20260505160517 | 40 | 349 | 2.6 | 9.6 | 0.00 | 0.00 | 0.00 | 49 | 1018.2 |
| 20260505153012 | 39 | 355 | 2.6 | 10.4 | 0.00 | 0.00 | 0.00 | 52 | 1018.1 |
| 20260505152512 | 39 | 360 | 3.5 | 10.4 | 0.00 | 0.00 | 0.00 | 51 | 1018.0 |
| 20260505152015 | 39 | 9 | 4.3 | 10.4 | 0.00 | 0.00 | 0.00 | 51 | 1017.9 |
| 20260505151517 | 39 | 323 | 4.3 | 10.4 | 0.00 | 0.00 | 0.00 | 50 | 1017.9 |
| 20260505151011 | 39 | 332 | 1.7 | 8.7 | 0.00 | 0.00 | 0.00 | 51 | 1017.9 |
| 20260505150510 | 39 | 304 | 2.6 | 7.8 | 0.00 | 0.00 | 0.00 | 53 | 1017.8 |
| 20260505140502 | 38 | 340 | 1.7 | 5.2 | 0.00 | 0.00 | 0.00 | 56 | 1017.6 |
| 20260505124554 | 36 | 300 | 1.7 | 6.1 | 0.00 | 0.00 | 0.00 | 63 | 1016.9 |